This demonstration page uses our WeatherBlox Daily Observations layout. Learn more.

40.92945, -100.16068

Hourly Observations for September 26, 2018

Temp ( °F °C ) Dew Point ( °F °C ) Humidity (%) Winds ( mph kmh ) Pressure ( in mb ) Visibility ( mi km ) Precip ( " mm )
12:15 am 00:15 Clear 43 6.1 39 3.8 85 85 NW 5 7 30.3 1026 10 16.0934 0 0
12:35 am 00:35 Clear 42 5.5 38 3.5 87 87 WNW 5 7 30.36 1028 10 16.0934 0 0
12:55 am 00:55 Clear 42 5.4 38 3.5 88 88 WNW 5 7 30.36 1028 10 16.0934 0 0
1:15 am 01:15 Clear 41 5.1 38 3.5 90 90 WNW 5 7 30.36 1028 10 16.0934 0 0
1:35 am 01:35 Clear 42 5.5 39 3.7 88 88 W 6 9 30.36 1028 10 16.0934 0 0
1:55 am 01:55 Clear 41 5 38 3.1 88 88 WNW 7 11 30.36 1028 10 16.0934 0 0
2:15 am 02:15 Clear 41 4.9 38 3.1 88 88 WNW 5 7 30.36 1028 10 16.0934 0 0
2:35 am 02:35 Clear 42 5.4 38 3.5 88 88 NW 7 11 30.36 1028 10 16.0934 0 0
2:55 am 02:55 Clear 41 5.2 38 3.5 89 89 Calm 30.36 1028 10 16.0934 0 0
3:15 am 03:15 Clear 41 4.8 38 3.2 90 90 WNW 5 7 30.36 1028 10 16.0934 0 0
3:35 am 03:35 Clear 41 5 38 3.4 90 90 NW 6 9 30.36 1028 10 16.0934 0 0
3:55 am 03:55 Clear 40 4.7 38 3.1 90 90 NW 5 7 30.36 1028 10 16.0934 0 0
4:15 am 04:15 Clear 40 4.4 37 2.9 90 90 Calm 30.36 1028 10 16.0934 0 0
4:35 am 04:35 Clear 40 4.3 37 2.7 89 89 NW 5 7 30.36 1028 10 16.0934 0 0
4:55 am 04:55 Clear 39 3.8 36 2.3 90 90 Calm 30.33 1027 10 16.0934 0 0
5:15 am 05:15 Clear 38 3.6 36 2.2 91 91 WNW 6 9 30.36 1028 10 16.0934 0 0
5:35 am 05:35 Clear 38 3.5 36 2.1 91 91 WNW 3 6 30.36 1028 10 16.0934 0 0
5:55 am 05:55 Clear 39 3.7 37 2.5 92 92 W 6 9 30.36 1028 10 16.0934 0 0
6:15 am 06:15 Clear 39 4 37 2.5 90 90 W 5 7 30.36 1028 10 16.0934 0 0
6:35 am 06:35 Clear 38 3.6 36 2.2 91 91 W 5 7 30.36 1028 10 16.0934 0 0
6:55 am 06:55 Clear 38 3.3 36 2 91 91 W 5 7 30.36 1028 10 16.0934 0 0
7:15 am 07:15 Clear 38 3.2 35 1.9 91 91 WSW 6 9 30.39 1029 10 16.0934 0 0
7:35 am 07:35 Sunny 38 3.5 36 2 90 90 W 6 9 30.42 1030 10 16.0934 0 0
7:55 am 07:55 Sunny 39 3.7 36 2.4 91 91 Calm 30.39 1029 10 16.0934 0 0
8:15 am 08:15 Sunny 39 3.9 36 2.2 89 89 Calm 30.39 1029 10 16.0934 0 0
8:35 am 08:35 Sunny 42 5.5 39 3.7 88 88 Calm 30.39 1029 10 16.0934 0 0
8:55 am 08:55 Sunny 44 6.8 40 4.4 85 85 Calm 30.36 1028 10 16.0934 0 0
9:15 am 09:15 Sunny 46 8 41 5 82 82 Calm 30.36 1028 10 16.0934 0 0
9:35 am 09:35 Sunny 49 9.4 42 5.8 78 78 Calm 30.36 1028 10 16.0934 0 0
9:55 am 09:55 Sunny 51 10.6 43 6.1 74 74 Calm 30.33 1027 10 16.0934 0 0
10:15 am 10:15 Sunny 54 12.1 43 5.9 66 66 Calm 30.3 1026 10 16.0934 0 0
10:35 am 10:35 Sunny 57 14 43 6.3 60 60 SSW 3 6 30.27 1025 10 16.0934 0 0
10:55 am 10:55 Sunny 60 15.7 42 5.4 51 51 SW 8 13 30.27 1025 10 16.0934 0 0
11:15 am 11:15 Sunny 62 16.8 37 2.8 39 39 SSW 12 19 30.24 1024 10 16.0934 0 0
11:35 am 11:35 Sunny 63 17 35 1.7 36 36 S 12 19 30.24 1024 10 16.0934 0 0
11:55 am 11:55 Sunny 63 17.3 35 1.7 35 35 SSW 10 17 30.24 1024 10 16.0934 0 0
12:15 pm 12:15 Sunny 65 18.4 36 2.1 34 34 SW 13 20 30.24 1024 10 16.0934 0 0
12:35 pm 12:35 Sunny 65 18.6 36 2.2 34 34 SW 15 24 30.24 1024 10 16.0934 0 0
12:55 pm 12:55 Sunny 66 19 36 2 32 32 SW 12 19 30.18 1022 10 16.0934 0 0
1:15 pm 13:15 Sunny 68 19.8 36 2.2 31 31 S 13 20 30.18 1022 10 16.0934 0 0
1:35 pm 13:35 Sunny 68 20.1 36 2.2 31 31 SSW 15 24 30.15 1021 10 16.0934 0 0
1:55 pm 13:55 Sunny 69 20.3 35 1.7 29 29 SSW 15 24 30.15 1021 10 16.0934 0 0
2:15 pm 14:15 Sunny 69 20.8 35 1.8 28 28 S 9 15 30.12 1020 10 16.0934 0 0
2:35 pm 14:35 Sunny 70 21.3 36 2.1 28 28 SW 17 28 30.09 1019 10 16.0934 0 0
2:55 pm 14:55 Sunny 72 22.1 36 2.3 27 27 SSW 13 20 30.06 1018 10 16.0934 0 0
3:15 pm 15:15 Sunny 72 22.3 36 2.3 27 27 SSW 10 17 30.03 1017 10 16.0934 0 0
3:35 pm 15:35 Sunny 73 22.6 36 2.3 26 26 SSW 13 20 30.03 1017 10 16.0934 0 0
3:55 pm 15:55 Sunny 73 22.8 36 2.3 26 26 SSW 21 33 30 1016 10 16.0934 0 0
4:15 pm 16:15 Sunny 73 22.9 36 2.4 26 26 SW 15 24 30 1016 10 16.0934 0 0
4:35 pm 16:35 Sunny 73 23 36 2.4 26 26 SSW 17 28 30 1016 10 16.0934 0 0
4:55 pm 16:55 Sunny 73 23 37 2.6 26 26 S 16 26 30 1016 10 16.0934 0 0
5:15 pm 17:15 Sunny 73 22.9 36 2.4 26 26 SW 17 28 29.97 1015 10 16.0934 0 0
5:35 pm 17:35 Sunny 73 22.8 37 2.8 27 27 SW 16 26 29.97 1015 10 16.0934 0 0
5:55 pm 17:55 Sunny 73 22.5 36 2.3 27 27 SW 16 26 29.97 1015 10 16.0934 0 0
6:15 pm 18:15 Sunny 72 22.2 37 2.8 28 28 SSW 14 22 29.97 1015 10 16.0934 0 0
6:35 pm 18:35 Sunny 71 21.7 39 3.7 31 31 SSW 12 19 29.97 1015 10 16.0934 0 0
6:55 pm 18:55 Sunny 70 21 38 3.4 32 32 SSW 10 17 29.94 1014 10 16.0934 0 0
7:15 pm 19:15 Sunny 67 19.6 39 3.7 35 35 SSW 9 15 29.97 1015 10 16.0934 0 0
7:35 pm 19:35 Clear 64 18 39 4.1 40 40 S 8 13 29.97 1015 10 16.0934 0 0
7:55 pm 19:55 Clear 62 16.9 40 4.5 44 44 S 9 15 29.97 1015 10 16.0934 0 0
8:15 pm 20:15 Clear 60 15.3 41 5 50 50 S 8 13 30 1016 10 16.0934 0 0
8:35 pm 20:35 Clear 59 15.1 41 5.1 51 51 S 9 15 30 1016 10 16.0934 0 0
8:55 pm 20:55 Clear 58 14.6 41 5.2 54 54 S 9 15 30 1016 10 16.0934 0 0
9:15 pm 21:15 Clear 59 15.1 41 5.1 51 51 S 9 15 30 1016 10 16.0934 0 0
9:35 pm 21:35 Clear 59 15.1 41 5.1 51 51 S 12 19 30 1016 10 16.0934 0 0
9:55 pm 21:55 Clear 60 15.6 41 4.8 49 49 S 10 17 30 1016 10 16.0934 0 0
10:15 pm 22:15 Clear 61 16 40 4.4 46 46 S 13 20 30 1016 10 16.0934 0 0
10:35 pm 22:35 Clear 62 16.7 38 3.6 42 42 S 14 22 30 1016 10 16.0934 0 0
10:55 pm 22:55 Clear 62 16.7 38 3.1 40 40 S 15 24 30 1016 10 16.0934 0 0
11:15 pm 23:15 Clear 62 16.7 37 3 40 40 SSW 13 20 30 1016 10 16.0934 0 0
11:35 pm 23:35 Clear 62 16.5 37 2.8 40 40 S 16 26 30 1016 10 16.0934 0 0
11:55 pm 23:55 Clear 62 16.5 37 2.5 39 39 SSW 15 24 30 1016 10 16.0934 0 0

Powered by AerisWeather